| time (UTC) | temp C | wind direction | speed KPH | gust KPH | rain 1hr cm | rain 24hr cm | rain mn cm | humidity % | barometer mb |
| 20260506050517 | 4 | 68 | 3.2 | 6.4 | 0.00 | 0.00 | 0.00 | 86 | |
| 20260506044517 | 4 | 315 | 3.2 | 6.4 | 0.00 | 0.00 | 0.00 | 87 | |
| 20260506043517 | 4 | 23 | 1.6 | 4.8 | 0.00 | 0.00 | 0.00 | 86 | |
| 20260506042517 | 5 | 45 | 1.6 | 4.8 | 0.00 | 0.00 | 0.00 | 86 | |
| 20260506041517 | 5 | 45 | 3.2 | 6.4 | 0.00 | 0.00 | 0.00 | 86 | |
| 20260506040517 | 5 | 68 | 3.2 | 9.7 | 0.00 | 0.00 | 0.00 | 85 | |
| 20260506035537 | 5 | 45 | 3.2 | 4.8 | 0.00 | 0.00 | 0.00 | 85 | |
| 20260506034517 | 5 | 68 | 4.8 | 8.0 | 0.00 | 0.00 | 0.00 | 85 | |
| 20260506033537 | 5 | 45 | 3.2 | 8.0 | 0.00 | 0.00 | 0.00 | 85 | |
| 20260506032517 | 5 | 0.0 | 3.2 | 0.00 | 0.00 | 0.00 | 85 | ||
| 20260506031516 | 5 | 68 | 3.2 | 12.9 | 0.00 | 0.00 | 0.00 | 85 | |
| 20260506030557 | 6 | 0.0 | 4.8 | 0.00 | 0.00 | 0.00 | 85 | ||
| 20260506025516 | 6 | 45 | 1.6 | 3.2 | 0.00 | 0.00 | 0.00 | 86 | |
| 20260506024536 | 6 | 68 | 4.8 | 11.3 | 0.00 | 0.00 | 0.00 | 86 | |
| 20260506023516 | 6 | 68 | 1.6 | 4.8 | 0.00 | 0.00 | 0.00 | 86 | |
| 20260506022537 | 6 | 45 | 4.8 | 9.7 | 0.00 | 0.00 | 0.00 | 86 | |
| 20260506021516 | 6 | 68 | 4.8 | 9.7 | 0.00 | 0.00 | 0.00 | 86 | |
| 20260506020537 | 6 | 68 | 4.8 | 8.0 | 0.00 | 0.00 | 0.00 | 86 | |
| 20260506015516 | 6 | 45 | 9.7 | 12.9 | 0.00 | 0.00 | 0.00 | 86 | |
| 20260506014516 | 6 | 45 | 9.7 | 17.7 | 0.00 | 0.00 | 0.00 | 86 | |
| 20260506013516 | 6 | 45 | 6.4 | 11.3 | 0.00 | 0.00 | 0.00 | 86 | |
| 20260506012516 | 6 | 68 | 9.7 | 17.7 | 0.00 | 0.00 | 0.00 | 86 | |
| 20260506011536 | 6 | 68 | 6.4 | 8.0 | 0.00 | 0.00 | 0.00 | 85 | |
| 20260506010516 | 6 | 68 | 3.2 | 4.8 | 0.00 | 0.00 | 0.00 | 85 | |
| 20260506005516 | 6 | 45 | 3.2 | 8.0 | 0.00 | 0.00 | 0.00 | 85 | |
| 20260506004516 | 6 | 68 | 3.2 | 6.4 | 0.00 | 0.00 | 0.00 | 85 | |
| 20260506003516 | 6 | 45 | 3.2 | 8.0 | 0.00 | 0.00 | 0.00 | 84 | |
| 20260506002516 | 6 | 45 | 3.2 | 6.4 | 0.00 | 0.00 | 0.00 | 84 | |
| 20260506001537 | 6 | 68 | 6.4 | 11.3 | 0.00 | 0.00 | 0.00 | 83 | |
| 20260506000516 | 6 | 45 | 3.2 | 6.4 | 0.00 | 0.00 | 0.00 | 83 | |
| 20260505235516 | 6 | 45 | 4.8 | 8.0 | 0.00 | 0.00 | 0.00 | 83 | |
| 20260505234516 | 6 | 45 | 3.2 | 6.4 | 0.00 | 0.00 | 0.00 | 82 | |
| 20260505233516 | 6 | 68 | 3.2 | 6.4 | 0.00 | 0.00 | 0.00 | 82 | |
| 20260505232516 | 7 | 45 | 4.8 | 9.7 | 0.00 | 0.00 | 0.00 | 82 | |
| 20260505231516 | 7 | 45 | 3.2 | 9.7 | 0.00 | 0.00 | 0.00 | 81 | |
| 20260505230516 | 7 | 45 | 3.2 | 9.7 | 0.00 | 0.00 | 0.00 | 80 | |
| 20260505225516 | 7 | 68 | 4.8 | 9.7 | 0.00 | 0.00 | 0.00 | 80 | |
| 20260505224536 | 7 | 68 | 3.2 | 6.4 | 0.00 | 0.00 | 0.00 | 79 | |
| 20260505223516 | 7 | 45 | 9.7 | 17.7 | 0.00 | 0.00 | 0.00 | 79 | |
| 20260505222516 | 7 | 68 | 6.4 | 14.5 | 0.00 | 0.00 | 0.00 | 79 | |
| 20260505221536 | 7 | 68 | 11.3 | 20.9 | 0.00 | 0.00 | 0.00 | 79 | |
| 20260505220536 | 7 | 45 | 6.4 | 11.3 | 0.00 | 0.00 | 0.00 | 80 | |
| 20260505215516 | 7 | 68 | 8.0 | 14.5 | 0.00 | 0.00 | 0.00 | 80 | |
| 20260505214516 | 7 | 68 | 8.0 | 16.1 | 0.00 | 0.00 | 0.00 | 79 | |
| 20260505213516 | 7 | 45 | 3.2 | 8.0 | 0.00 | 0.00 | 0.00 | 79 | |
| 20260505212536 | 8 | 68 | 3.2 | 8.0 | 0.00 | 0.00 | 0.00 | 80 | |
| 20260505211516 | 8 | 68 | 6.4 | 12.9 | 0.00 | 0.00 | 0.00 | 82 | |
| 20260505210516 | 8 | 45 | 8.0 | 12.9 | 0.00 | 0.00 | 0.00 | 81 | |
| 20260505205516 | 8 | 0 | 4.8 | 9.7 | 0.00 | 0.00 | 0.00 | 82 | |
| 20260505204536 | 8 | 68 | 6.4 | 14.5 | 0.00 | 0.00 | 0.00 | 83 | |
| 20260505203536 | 8 | 45 | 8.0 | 12.9 | 0.00 | 0.00 | 0.00 | 83 | |
| 20260505202516 | 8 | 68 | 8.0 | 19.3 | 0.00 | 0.00 | 0.00 | 83 | |
| 20260505201516 | 8 | 45 | 8.0 | 16.1 | 0.00 | 0.00 | 0.00 | 83 | |
| 20260505200516 | 8 | 68 | 3.2 | 9.7 | 0.00 | 0.00 | 0.00 | 84 | |
| 20260505195516 | 8 | 68 | 11.3 | 14.5 | 0.00 | 0.00 | 0.00 | 82 | |
| 20260505194515 | 9 | 45 | 9.7 | 14.5 | 0.00 | 0.00 | 0.00 | 83 | |
| 20260505193515 | 9 | 68 | 4.8 | 9.7 | 0.00 | 0.00 | 0.00 | 84 | |
| 20260505192516 | 9 | 45 | 6.4 | 9.7 | 0.00 | 0.00 | 0.00 | 84 | |
| 20260505191516 | 9 | 45 | 4.8 | 8.0 | 0.00 | 0.00 | 0.00 | 84 | |
| 20260505190536 | 10 | 45 | 4.8 | 8.0 | 0.00 | 0.00 | 0.00 | 82 | |
| 20260505185515 | 10 | 68 | 8.0 | 17.7 | 0.00 | 0.00 | 0.00 | 82 | |
| 20260505184516 | 10 | 68 | 9.7 | 17.7 | 0.00 | 0.00 | 0.00 | 82 | |
| 20260505183518 | 10 | 68 | 8.0 | 11.3 | 0.00 | 0.00 | 0.00 | 82 | |
| 20260505182516 | 10 | 68 | 9.7 | 17.7 | 0.00 | 0.00 | 0.00 | 82 | |
| 20260505181518 | 10 | 90 | 9.7 | 19.3 | 0.00 | 0.00 | 0.00 | 82 | |
| 20260505180515 | 10 | 68 | 14.5 | 19.3 | 0.00 | 0.00 | 0.00 | 82 | |
| 20260505175536 | 10 | 68 | 11.3 | 16.1 | 0.00 | 0.00 | 0.00 | 81 | |
| 20260505174516 | 11 | 45 | 9.7 | 19.3 | 0.00 | 0.00 | 0.00 | 80 | |
| 20260505173518 | 11 | 68 | 11.3 | 19.3 | 0.00 | 0.00 | 0.00 | 78 | |
| 20260505172518 | 11 | 68 | 11.3 | 48.3 | 0.00 | 0.00 | 0.00 | 75 | |
| 20260505171538 | 12 | 45 | 4.8 | 11.3 | 0.00 | 0.00 | 0.00 | 66 | |
| 20260505170538 | 12 | 45 | 3.2 | 4.8 | 0.00 | 0.00 | 0.00 | 66 | |
| 20260505165518 | 12 | 68 | 6.4 | 14.5 | 0.00 | 0.00 | 0.00 | 65 | |
| 20260505164518 | 12 | 68 | 3.2 | 8.0 | 0.00 | 0.00 | 0.00 | 64 | |
| 20260505163538 | 12 | 68 | 1.6 | 3.2 | 0.00 | 0.00 | 0.00 | 63 | |
| 20260505162518 | 12 | 293 | 1.6 | 4.8 | 0.00 | 0.00 | 0.00 | 63 | |
| 20260505161517 | 12 | 23 | 1.6 | 4.8 | 0.00 | 0.00 | 0.00 | 64 | |
| 20260505160517 | 12 | 315 | 4.8 | 8.0 | 0.00 | 0.00 | 0.00 | 63 | |
| 20260505152518 | 13 | 68 | 3.2 | 9.7 | 0.00 | 0.00 | 0.00 | 62 | |
| 20260505151517 | 13 | 68 | 6.4 | 12.9 | 0.00 | 0.00 | 0.00 | 62 | |
| 20260505150517 | 13 | 23 | 6.4 | 9.7 | 0.00 | 0.00 | 0.00 | 62 | |
| 20260505140537 | 13 | 68 | 3.2 | 6.4 | 0.00 | 0.00 | 0.00 | 61 | |
| 20260505124537 | 13 | 315 | 3.2 | 4.8 | 0.00 | 0.00 | 0.00 | 63 | |
| 20260505123537 | 12 | 45 | 1.6 | 6.4 | 0.00 | 0.00 | 0.00 | 60 | |
| 20260505122517 | 12 | 68 | 3.2 | 4.8 | 0.00 | 0.00 | 0.00 | 62 | |
| 20260505121517 | 12 | 45 | 3.2 | 6.4 | 0.00 | 0.00 | 0.00 | 61 | |
| 20260505120517 | 12 | 45 | 3.2 | 8.0 | 0.00 | 0.00 | 0.00 | 62 | |
| 20260505115517 | 12 | 338 | 3.2 | 6.4 | 0.00 | 0.00 | 0.00 | 61 | |
| 20260505114517 | 13 | 68 | 3.2 | 8.0 | 0.00 | 0.00 | 0.00 | 63 | |
| 20260505113517 | 12 | 338 | 4.8 | 6.4 | 0.00 | 0.00 | 0.00 | 63 | |
| 20260505112517 | 12 | 338 | 3.2 | 8.0 | 0.00 | 0.00 | 0.00 | 62 | |
| 20260505111537 | 13 | 338 | 4.8 | 9.7 | 0.00 | 0.00 | 0.00 | 62 | |
| 20260505110517 | 12 | 68 | 4.8 | 6.4 | 0.00 | 0.00 | 0.00 | 62 | |
| 20260505101517 | 12 | 68 | 9.7 | 14.5 | 0.00 | 0.00 | 0.00 | 65 | |
| 20260505100517 | 12 | 0 | 3.2 | 6.4 | 0.00 | 0.00 | 0.00 | 66 | |
| 20260505095537 | 12 | 315 | 3.2 | 6.4 | 0.00 | 0.00 | 0.00 | 65 | |
| 20260505094517 | 12 | 45 | 3.2 | 6.4 | 0.00 | 0.00 | 0.00 | 67 | |
| 20260505093517 | 12 | 45 | 1.6 | 6.4 | 0.00 | 0.00 | 0.00 | 66 | |
| 20260505092517 | 12 | 45 | 3.2 | 8.0 | 0.00 | 0.00 | 0.00 | 66 | |
| 20260505091517 | 12 | 0 | 4.8 | 8.0 | 0.00 | 0.00 | 0.00 | 67 | |
| 20260505090517 | 12 | 45 | 6.4 | 12.9 | 0.00 | 0.00 | 0.00 | 69 | |
| 20260505085517 | 12 | 45 | 4.8 | 8.0 | 0.00 | 0.00 | 0.00 | 70 | |
| 20260505084517 | 12 | 293 | 3.2 | 9.7 | 0.00 | 0.00 | 0.00 | 71 | |
| 20260505083537 | 11 | 338 | 3.2 | 6.4 | 0.00 | 0.00 | 0.00 | 71 | |
| 20260505082517 | 12 | 23 | 3.2 | 9.7 | 0.00 | 0.00 | 0.00 | 70 | |
| 20260505081517 | 11 | 23 | 1.6 | 8.0 | 0.00 | 0.00 | 0.00 | 73 | |
| 20260505080516 | 11 | 0 | 4.8 | 8.0 | 0.00 | 0.00 | 0.00 | 73 | |
| 20260505075537 | 11 | 338 | 1.6 | 4.8 | 0.00 | 0.00 | 0.00 | 75 | |
| 20260505074517 | 11 | 0 | 3.2 | 4.8 | 0.00 | 0.00 | 0.00 | 75 | |
| 20260505073517 | 11 | 45 | 1.6 | 4.8 | 0.00 | 0.00 | 0.00 | 76 | |
| 20260505072517 | 11 | 45 | 4.8 | 9.7 | 0.00 | 0.00 | 0.00 | 76 | |
| 20260505071518 | 10 | 315 | 3.2 | 4.8 | 0.00 | 0.00 | 0.00 | 78 | |
| 20260505070516 | 10 | 0.0 | 3.2 | 0.00 | 0.00 | 0.00 | 80 | ||
| 20260505065537 | 10 | 315 | 3.2 | 6.4 | 0.00 | 0.00 | 0.00 | 80 | |
| 20260505064536 | 10 | 23 | 3.2 | 6.4 | 0.00 | 0.00 | 0.00 | 81 | |
| 20260505063516 | 9 | 0.0 | 1.6 | 0.00 | 0.00 | 0.00 | 85 | ||
| 20260505062517 | 8 | 45 | 1.6 | 3.2 | 0.00 | 0.00 | 0.00 | 86 | |
| 20260505061537 | 8 | 0.0 | 1.6 | 0.00 | 0.00 | 0.00 | 88 | ||
| 20260505060537 | 7 | 338 | 1.6 | 1.6 | 0.00 | 0.00 | 0.00 | 87 | |
| 20260505055516 | 8 | 0.0 | 1.6 | 0.00 | 0.00 | 0.00 | 88 | ||
| 20260505054537 | 7 | 0.0 | 1.6 | 0.00 | 0.00 | 0.00 | 89 | ||
| 20260505053516 | 7 | 0.0 | 3.2 | 0.00 | 0.00 | 0.00 | 89 | ||
| 20260505052516 | 7 | 293 | 1.6 | 3.2 | 0.00 | 0.00 | 0.00 | 90 |